COSMOS 2251 DEB, 34620

Orbit data source: Space-Track

COSMOS 2251 DEB, 34620 is space debris in LEO originally from a launch on Wed, 16 Jun 1993 UTC launched from the Plesetsk Missile And Space Complex (PKMTR). The debris from Iridium 33, an American commercial communications satellite, has been tracked extensively since its accidental collision with the defunct Russian satellite Cosmos 2251 in 2009. This event, occurring at high speed in low Earth orbit (LEO), generated thousands of pieces of space debris, significantly increasing the risk of further collisions. The Iridium 33 debris cloud has impacted space traffic management and orbital debris mitigation strategies, making it a subject of ongoing study in space situational awareness.

Loading next visibility...
Identifier
34620, 1993-036WR
Orbit
LEO
Country
Flag of CISCIS
Related business
Manufacturer
Unknown
Mission
Spacecraft
Bus & Motor
Unknown
Mass
Unknown
Launch date (UTC)
1993-06-16 (33 years ago)
Launch vehicle
Unknown
Launch site
Plesetsk Missile And Space Complex (PKMTR)
Object type
Payload
Rocket body
Debris
Shape & HBR
Unknown shape, 0.1 m
Radar Cross Section
Small (<0.1 m²)

Expand to show TLE details & history
Last TLE update: 3 days ago

TLE from 3 days ago
0 COSMOS 2251 DEB
1 34620U 93036WR  26251.49323203  .00006189  00000-0  14245-2 0  9990
2 34620  74.0484  71.7600 0074198  43.3832 317.3137 14.53880689907426
Epoch: 2026-09-08T11:50Z
TLE epoch observation values (Epoch: 2026-09-08T11:50:15.247Z)
Latitude
-0.00002°
Longitude
-93.36239°
Altitude
677.134 km
Speed
7.539 km/s
True Right ascension
04h 47m 02s
True Declination
0° 00' 00"
Sunlit
Object was in daylight at epoch
Visualization orbit readout
Latitude
Unknown
Longitude
Unknown
Altitude
Unknown
Speed
Unknown
Apparent Right ascension
Unknown
Apparent Declination
Unknown
Sunlit
N/A
Visualization observer readout
Local Sidereal Time
00:11:49
Azimuth
Unknown
Elevation
Unknown
Doppler factor
Unknown
Orbital elements
Apogee altitude
763.202 km
Perigee altitude
658.008 km
Semi-major axis
7,088.742 km
Eccentricity
0.00742
Inclination
74.0484°
RAAN
71.76°
Arg. of periapsis
43.3832°
True anomaly
316.7333°
Mean anomaly
317.3137°
Eccentric anomaly
317.0239°
Mean motion
3.63655 °/min
Orbital period
98.99 mins
BSTAR
0.0014245

Documentation

Showing up to 5 results
|